Weather History for Moab, UT

Change the Weather History Date:

Monday, September 16, 2013

  Actual Average Record
Temperature  
Mean Temperature 71 °F 67 °F  
Max Temperature 84 °F 82 °F 100 °F (1953)
Min Temperature 58 °F 52 °F 38 °F (1989)
Degree Days  
Heating Degree Days 0 2  
Month to date heating degree days 1 11  
Since 1 July heating degree days 1 12  
Cooling Degree Days 6 4  
Month to date cooling degree days 142 90  
Year to date cooling degree days 1609 1256  
Growing Degree Days 22 (Base 50)    
Moisture  
Dew Point 53 °F    
Average Humidity 59    
Maximum Humidity 87    
Minimum Humidity 31    
Precipitation  
Precipitation 0.00 in 0.03 in 0.26 in (2011)
Month to date precipitation 0.77 0.49  
Year to date precipitation 4.67 5.87  
Sea Level Pressure  
Sea Level Pressure 29.94 in    
Wind  
Wind Speed 3 mph (South)    
Max Wind Speed 13 mph    
Max Gust Speed 18 mph    
Visibility 10 miles    
Events      
T = Trace of Precipitation, MM = Missing Value Source: NWS Daily Summary

Daily Weather History Graph

Daily Weather History Graph

Search for Another Location

Airport:

Trip Planner

Search our weather history database for the weather conditions in past years. The results will help you decide how hot, cold, wet, or windy it might be!

Date:

Astronomy

Sep. 16, 2013 Rise Set
Actual Time 7:01 AM MDT 7:25 PM MDT
Civil Twilight 6:35 AM MDT 7:51 PM MDT
Nautical Twilight 6:03 AM MDT 8:23 PM MDT
Astronomical Twilight 5:31 AM MDT 8:54 PM MDT
Moon 5:35 PM MDT (9/16) 3:53 AM MDT (9/16)
Length of Visible Light 13h 16m
Length of Day
12h 23m
Waxing Gibbous, 90% of the Moon is Illuminated
Sep 16
Waxing Gibbous
Sep 19
Full
Sep 26
Last Quarter
Oct 4
New
Oct 11
First Quarter

Hourly Weather History & Observations

Time (MDT) Temp. Heat Index Dew Point Humidity Pressure Visibility Wind Dir Wind Speed Gust Speed Precip Events Conditions
12:53 AM 61.0 °F - 55.0 °F 81% 29.95 in 10.0 mi Calm Calm - N/A   Clear
1:53 AM 62.1 °F - 55.0 °F 78% 29.96 in 10.0 mi Calm Calm - N/A   Clear
2:53 AM 61.0 °F - 55.0 °F 81% 29.96 in 10.0 mi Calm Calm - N/A   Clear
3:53 AM 60.1 °F - 55.0 °F 83% 29.96 in 10.0 mi Calm Calm - N/A   Clear
4:53 AM 61.0 °F - 55.0 °F 81% 29.96 in 10.0 mi Calm Calm - N/A   Clear
5:53 AM 59.0 °F - 55.0 °F 87% 29.98 in 10.0 mi Calm Calm - N/A   Clear
6:53 AM 59.0 °F - 54.0 °F 83% 29.99 in 10.0 mi Calm Calm - N/A   Clear
7:53 AM 62.1 °F - 55.0 °F 78% 30.01 in 10.0 mi Calm Calm - N/A   Clear
8:53 AM 66.0 °F - 55.9 °F 70% 30.01 in 10.0 mi SE 6.9 mph - N/A   Clear
9:53 AM 69.1 °F - 54.0 °F 58% 30.03 in 10.0 mi SE 6.9 mph - N/A   Clear
10:53 AM 73.0 °F - 53.1 °F 49% 30.02 in 10.0 mi ESE 8.1 mph - N/A   Clear
11:53 AM 75.0 °F - 53.1 °F 46% 30.01 in 10.0 mi Variable 5.8 mph - N/A   Clear
12:53 PM 77.0 °F - 53.1 °F 43% 29.99 in 10.0 mi Calm Calm - N/A   Clear
1:53 PM 80.1 °F 79.9 °F 53.1 °F 39% 29.96 in 10.0 mi ESE 6.9 mph - N/A   Clear
2:53 PM 82.0 °F - 52.0 °F 35% 29.92 in 10.0 mi West 6.9 mph 18.4 mph N/A   Clear
3:53 PM 82.0 °F - 52.0 °F 35% 29.90 in 10.0 mi Calm Calm - N/A   Clear
4:53 PM 82.0 °F - 50.0 °F 33% 29.87 in 10.0 mi WSW 5.8 mph - N/A   Clear
5:53 PM 84.0 °F - 50.0 °F 31% 29.86 in 10.0 mi NNW 8.1 mph - N/A   Clear
6:53 PM 82.0 °F - 50.0 °F 33% 29.86 in 10.0 mi NNW 5.8 mph - N/A   Clear
7:53 PM 77.0 °F - 50.0 °F 39% 29.86 in 10.0 mi Calm Calm - N/A   Clear
8:53 PM 73.0 °F - 51.1 °F 46% 29.88 in 10.0 mi WSW 3.5 mph - N/A   Clear
9:53 PM 68.0 °F - 55.0 °F 63% 29.89 in 10.0 mi Calm Calm - N/A   Clear
10:53 PM 68.0 °F - 48.9 °F 50% 29.89 in 10.0 mi Calm Calm - N/A   Clear
11:53 PM 66.0 °F - 48.9 °F 54% 29.89 in 10.0 mi Calm Calm - N/A   Clear